EW8063 Weather Reports


time (UTC)temp
C
wind
direction
speed
KPH
gust
KPH
rain 1hr
cm
rain 24hr
cm
rain mn
cm
humidity
%
barometer
mb
20260504223028 26 107 20.9 29.0 0.00 0.10 0.10 85 1015.0
20260504221609 26 105 14.5 25.7 0.00 0.10 0.10 85 1015.1
20260504220056 26 100 19.3 29.0 0.00 0.10 0.10 84 1014.9
20260504214526 26 121 19.3 29.0 0.00 0.10 0.10 82 1015.0
20260504213032 26 85 17.7 27.4 0.00 0.10 0.10 82 1015.1
20260504211523 27 76 17.7 24.1 0.00 0.10 0.10 81 1015.1
20260504210023 27 90 16.1 24.1 0.00 0.10 0.10 81 1015.1
20260504204528 27 81 9.7 16.1 0.00 0.10 0.10 78 1015.1
20260504203022 27 74 8.0 16.1 0.00 0.10 0.10 78 1015.1
20260504201520 28 61 6.4 12.9 0.00 0.10 0.10 78 1015.1
20260504200019 27 51 4.8 9.7 0.00 0.10 0.10 78 1015.1
20260504194524 28 35 4.8 8.0 0.00 0.10 0.10 74 1015.3
20260504193020 29 294 4.8 12.9 0.00 0.10 0.10 71 1015.5
20260504191527 30 355 6.4 12.9 0.00 0.10 0.10 68 1015.6
20260504190015 31 274 11.3 16.1 0.00 0.10 0.10 68 1015.7
20260504184518 30 277 9.7 14.5 0.00 0.10 0.10 68 1016.1
20260504183014 31 283 6.4 17.7 0.00 0.10 0.10 70 1016.2
20260504181516 31 305 11.3 16.1 0.00 0.10 0.10 70 1016.2
20260504180016 31 273 9.7 17.7 0.00 0.10 0.10 69 1016.2
20260504174511 31 279 9.7 17.7 0.00 0.10 0.10 71 1016.3
20260504173011 31 273 11.3 17.7 0.00 0.10 0.10 67 1016.3
20260504171540 30 296 12.9 17.7 0.00 0.10 0.10 69 1016.3
20260504081518 25 184 12.9 17.7 0.00 0.00 0.00 93 1014.8
20260504050025 25 194 1.6 6.4 0.00 0.00 0.00 93 1016.7
20260504044525 26 147 1.6 6.4 0.00 0.00 0.00 92 1016.7
20260504043024 26 133 1.6 8.0 0.00 0.00 0.00 93 1017.0
20260504041524 26 147 1.6 8.0 0.00 0.00 0.00 92 1017.1
20260504040037 26 148 1.6 4.8 0.00 0.00 0.00 92 1017.2
20260504034523 26 117 1.6 6.4 0.00 0.00 0.00 92 1017.2
20260504033022 26 162 1.6 6.4 0.00 0.00 0.00 92 1017.2
20260504031521 26 135 1.6 8.0 0.00 0.00 0.00 92 1017.2
20260504030017 26 143 1.6 6.4 0.00 0.00 0.00 92 1017.1
20260504024517 26 144 0.0 3.2 0.00 0.00 0.00 91 1017.0
20260504023016 26 90 0.0 3.2 0.00 0.00 0.00 91 1017.0
20260504021516 26 130 0.0 4.8 0.00 0.00 0.00 91 1016.9
20260504020046 26 126 3.2 9.7 0.00 0.00 0.00 90 1016.8
20260504014557 26 134 1.6 8.0 0.00 0.00 0.00 90 1016.8
20260504013043 26 136 1.6 4.8 0.00 0.00 0.00 90 1016.6
20260504011543 26 102 1.6 3.2 0.00 0.00 0.00 90 1016.9
20260504010050 26 109 0.0 3.2 0.00 0.00 0.00 90 1016.6
20260504004548 26 148 0.0 0.0 0.00 0.00 0.00 89 1016.5
20260504003043 26 169 0.0 3.2 0.00 0.00 0.00 89 1016.3
20260504001530 26 169 0.0 0.0 0.00 0.00 0.00 88 1016.1
20260504000029 27 109 0.0 4.8 0.00 0.00 0.00 87 1015.8
20260503234533 27 121 0.0 4.8 0.00 0.00 0.00 86 1015.5
20260503231529 27 183 1.6 4.8 0.00 0.00 0.00 82 1015.4
20260503230029 28 192 1.6 8.0 0.00 0.00 0.00 80 1015.5
20260503224529 28 236 3.2 4.8 0.00 0.00 0.00 80 1015.4